contact:dominique.lefevre@mio.osupytheas.fr, maurice.libes@osupytheas.fr, didier.mallarino@osupytheas.fr
Project:EMSO http://www.emso-fr.org/EMSO-France
Depth: 2436.0 m
Title:EMSO Ligure Ouest : Data MII capteur MICROCAT
DateTime_Computer,Latitude,Longitude,Temperature,Conductivity,Pressure,DateTime_Instrument
DateTime_Computer,Latitude,Longitude,degC,S m-1,dbar,DateTime_Instrument
2020-04-13T00:00:14Z,42.805,6.029,13.2971,4.59971,2470.053,2020-4-13T02:00:53Z
2020-04-13T00:03:17Z,42.805,6.029,13.2972,4.59970,2470.063,2020-4-13T02:03:56Z
2020-04-13T00:06:20Z,42.805,6.029,13.2971,4.59971,2470.114,2020-4-13T02:07:00Z
2020-04-13T00:09:23Z,42.805,6.029,13.2974,4.59971,2470.04,2020-4-13T02:10:03Z
2020-04-13T00:12:27Z,42.805,6.029,13.2974,4.59972,2470.063,2020-4-13T02:13:06Z
2020-04-13T00:15:30Z,42.805,6.029,13.2968,4.59971,2470.1,2020-4-13T02:16:09Z
2020-04-13T00:18:33Z,42.805,6.029,13.2970,4.59971,2470.063,2020-4-13T02:19:13Z
2020-04-13T00:21:36Z,42.805,6.029,13.2973,4.59971,2470.1,2020-4-13T02:22:16Z
2020-04-13T00:24:40Z,42.805,6.029,13.2974,4.59971,2470.077,2020-4-13T02:25:19Z
2020-04-13T00:27:43Z,42.805,6.029,13.2973,4.59971,2470.04,2020-4-13T02:28:22Z
2020-04-13T00:30:46Z,42.805,6.029,13.2970,4.59971,2470.053,2020-4-13T02:31:26Z
2020-04-13T00:33:50Z,42.805,6.029,13.2971,4.59971,2470.063,2020-4-13T02:34:29Z
2020-04-13T00:36:53Z,42.805,6.029,13.2974,4.59971,2470.04,2020-4-13T02:37:32Z
2020-04-13T00:39:56Z,42.805,6.029,13.2970,4.59971,2470.04,2020-4-13T02:40:35Z
2020-04-13T00:42:59Z,42.805,6.029,13.2973,4.59971,2470.04,2020-4-13T02:43:39Z
2020-04-13T00:46:02Z,42.805,6.029,13.2973,4.59971,2470.063,2020-4-13T02:46:42Z
2020-04-13T00:49:06Z,42.805,6.029,13.2968,4.59971,2470.053,2020-4-13T02:49:45Z
2020-04-13T00:52:09Z,42.805,6.029,13.2972,4.59971,2470.077,2020-4-13T02:52:48Z
2020-04-13T00:55:12Z,42.805,6.029,13.2974,4.59971,2470.053,2020-4-13T02:55:52Z
2020-04-13T00:58:15Z,42.805,6.029,13.2976,4.59971,2470.053,2020-4-13T02:58:55Z
2020-04-13T01:01:19Z,42.805,6.029,13.2971,4.59971,2470.007,2020-4-13T03:01:58Z
2020-04-13T01:04:22Z,42.805,6.029,13.2969,4.59971,2470.053,2020-4-13T03:05:01Z
2020-04-13T01:07:25Z,42.805,6.029,13.2972,4.59971,2470.053,2020-4-13T03:08:04Z
2020-04-13T01:10:28Z,42.805,6.029,13.2971,4.59970,2470.053,2020-4-13T03:11:08Z
2020-04-13T01:13:32Z,42.805,6.029,13.2971,4.59970,2470.04,2020-4-13T03:14:11Z
2020-04-13T01:16:35Z,42.805,6.029,13.2972,4.59971,2470.017,2020-4-13T03:17:14Z
2020-04-13T01:19:38Z,42.805,6.029,13.2972,4.59970,2470.03,2020-4-13T03:20:17Z
2020-04-13T01:22:41Z,42.805,6.029,13.2971,4.59970,2470.053,2020-4-13T03:23:21Z
2020-04-13T01:25:44Z,42.805,6.029,13.2973,4.59970,2470.053,2020-4-13T03:26:24Z
2020-04-13T01:28:48Z,42.805,6.029,13.2971,4.59970,2470.04,2020-4-13T03:29:27Z
2020-04-13T01:31:51Z,42.805,6.029,13.2968,4.59971,2470.063,2020-4-13T03:32:30Z
2020-04-13T01:34:54Z,42.805,6.029,13.2972,4.59970,2470.017,2020-4-13T03:35:33Z
2020-04-13T01:37:57Z,42.805,6.029,13.2974,4.59971,2470.017,2020-4-13T03:38:37Z
2020-04-13T01:41:01Z,42.805,6.029,13.2970,4.59970,2470.04,2020-4-13T03:41:40Z
2020-04-13T01:44:04Z,42.805,6.029,13.2971,4.59970,2470.017,2020-4-13T03:44:43Z
2020-04-13T01:47:07Z,42.805,6.029,13.2970,4.59970,2470.03,2020-4-13T03:47:46Z
2020-04-13T01:50:10Z,42.805,6.029,13.2974,4.59971,2470.03,2020-4-13T03:50:50Z
2020-04-13T01:53:13Z,42.805,6.029,13.2974,4.59970,2470.053,2020-4-13T03:53:53Z
2020-04-13T01:56:17Z,42.805,6.029,13.2972,4.59970,2470.04,2020-4-13T03:56:56Z
2020-04-13T01:59:20Z,42.805,6.029,13.2971,4.59971,2469.993,2020-4-13T03:59:59Z
2020-04-13T02:02:23Z,42.805,6.029,13.2973,4.59970,2470.04,2020-4-13T04:03:03Z
2020-04-13T02:05:27Z,42.805,6.029,13.2974,4.59970,2470.04,2020-4-13T04:06:06Z
2020-04-13T02:08:30Z,42.805,6.029,13.2971,4.59970,2470.017,2020-4-13T04:09:09Z
2020-04-13T02:11:33Z,42.805,6.029,13.2971,4.59971,2470.053,2020-4-13T04:12:12Z
2020-04-13T02:14:36Z,42.805,6.029,13.2972,4.59970,2470.017,2020-4-13T04:15:16Z
2020-04-13T02:17:40Z,42.805,6.029,13.2973,4.59970,2469.97,2020-4-13T04:18:19Z
2020-04-13T02:20:43Z,42.805,6.029,13.2968,4.59971,2470.04,2020-4-13T04:21:22Z
2020-04-13T02:23:46Z,42.805,6.029,13.2975,4.59970,2469.993,2020-4-13T04:24:25Z
2020-04-13T02:26:50Z,42.805,6.029,13.2970,4.59971,2470.007,2020-4-13T04:27:29Z
2020-04-13T02:29:53Z,42.805,6.029,13.2970,4.59969,2470.017,2020-4-13T04:30:32Z
2020-04-13T02:32:56Z,42.805,6.029,13.2971,4.59969,2470.007,2020-4-13T04:33:35Z
2020-04-13T02:35:59Z,42.805,6.029,13.2968,4.59969,2470.007,2020-4-13T04:36:39Z
2020-04-13T02:39:03Z,42.805,6.029,13.2972,4.59969,2470.017,2020-4-13T04:39:42Z
2020-04-13T02:42:06Z,42.805,6.029,13.2975,4.59970,2470.03,2020-4-13T04:42:45Z
2020-04-13T02:45:09Z,42.805,6.029,13.2969,4.59970,2469.97,2020-4-13T04:45:48Z
2020-04-13T02:48:12Z,42.805,6.029,13.2974,4.59970,2469.984,2020-4-13T04:48:52Z
2020-04-13T02:51:15Z,42.805,6.029,13.2968,4.59970,2469.993,2020-4-13T04:51:55Z
2020-04-13T02:54:19Z,42.805,6.029,13.2973,4.59969,2469.97,2020-4-13T04:54:58Z
2020-04-13T02:57:22Z,42.805,6.029,13.2968,4.59969,2469.97,2020-4-13T04:58:01Z
2020-04-13T03:00:25Z,42.805,6.029,13.2971,4.59970,2470.007,2020-4-13T05:01:05Z
2020-04-13T03:03:28Z,42.805,6.029,13.2973,4.59969,2469.956,2020-4-13T05:04:08Z
2020-04-13T03:06:32Z,42.805,6.029,13.2970,4.59970,2469.947,2020-4-13T05:07:11Z
2020-04-13T03:09:35Z,42.805,6.029,13.2969,4.59969,2469.947,2020-4-13T05:10:15Z
2020-04-13T03:12:38Z,42.805,6.029,13.2969,4.59970,2469.97,2020-4-13T05:13:18Z
2020-04-13T03:15:42Z,42.805,6.029,13.2970,4.59969,2469.97,2020-4-13T05:16:21Z
2020-04-13T03:18:45Z,42.805,6.029,13.2971,4.59970,2469.993,2020-4-13T05:19:24Z
2020-04-13T03:21:48Z,42.805,6.029,13.2974,4.59969,2469.97,2020-4-13T05:22:28Z
2020-04-13T03:24:51Z,42.805,6.029,13.2971,4.59970,2469.97,2020-4-13T05:25:31Z
2020-04-13T03:27:55Z,42.805,6.029,13.2974,4.59971,2470.007,2020-4-13T05:28:34Z
2020-04-13T03:30:58Z,42.805,6.029,13.2970,4.59969,2469.993,2020-4-13T05:31:37Z
2020-04-13T03:34:01Z,42.805,6.029,13.2973,4.59969,2469.97,2020-4-13T05:34:40Z
2020-04-13T03:37:04Z,42.805,6.029,13.2968,4.59969,2469.984,2020-4-13T05:37:44Z
2020-04-13T03:40:08Z,42.805,6.029,13.2974,4.59970,2470.03,2020-4-13T05:40:47Z
2020-04-13T03:43:11Z,42.805,6.029,13.2967,4.59970,2469.923,2020-4-13T05:43:50Z
2020-04-13T03:46:14Z,42.805,6.029,13.2971,4.59969,2469.947,2020-4-13T05:46:53Z
2020-04-13T03:49:17Z,42.805,6.029,13.2969,4.59969,2469.984,2020-4-13T05:49:57Z
2020-04-13T03:52:21Z,42.805,6.029,13.2973,4.59970,2469.937,2020-4-13T05:53:00Z
2020-04-13T03:55:24Z,42.805,6.029,13.2971,4.59968,2469.984,2020-4-13T05:56:03Z
2020-04-13T03:58:27Z,42.805,6.029,13.2973,4.59969,2469.937,2020-4-13T05:59:06Z
2020-04-13T04:01:30Z,42.805,6.029,13.2968,4.59969,2469.96,2020-4-13T06:02:10Z
2020-04-13T04:04:34Z,42.805,6.029,13.2971,4.59969,2469.96,2020-4-13T06:05:13Z
2020-04-13T04:07:37Z,42.805,6.029,13.2974,4.59968,2470.007,2020-4-13T06:08:16Z
2020-04-13T04:10:40Z,42.805,6.029,13.2968,4.59969,2469.97,2020-4-13T06:11:20Z
2020-04-13T04:13:44Z,42.805,6.029,13.2970,4.59969,2469.97,2020-4-13T06:14:23Z
2020-04-13T04:16:47Z,42.805,6.029,13.2973,4.59970,2469.947,2020-4-13T06:17:26Z
2020-04-13T04:19:50Z,42.805,6.029,13.2970,4.59969,2469.97,2020-4-13T06:20:29Z
2020-04-13T04:22:53Z,42.805,6.029,13.2968,4.59970,2469.937,2020-4-13T06:23:33Z
2020-04-13T04:25:56Z,42.805,6.029,13.2968,4.59969,2469.947,2020-4-13T06:26:36Z
2020-04-13T04:29:00Z,42.805,6.029,13.2973,4.59969,2469.947,2020-4-13T06:29:39Z
2020-04-13T04:32:03Z,42.805,6.029,13.2968,4.59969,2469.97,2020-4-13T06:32:42Z
2020-04-13T04:35:06Z,42.805,6.029,13.2975,4.59969,2469.984,2020-4-13T06:35:45Z
2020-04-13T04:38:09Z,42.805,6.029,13.2967,4.59969,2469.956,2020-4-13T06:38:49Z
2020-04-13T04:41:13Z,42.805,6.029,13.2967,4.59969,2469.97,2020-4-13T06:41:52Z
2020-04-13T04:44:16Z,42.805,6.029,13.2971,4.59969,2469.993,2020-4-13T06:44:55Z
2020-04-13T04:47:19Z,42.805,6.029,13.2973,4.59969,2469.96,2020-4-13T06:47:58Z
2020-04-13T04:50:22Z,42.805,6.029,13.2970,4.59969,2469.993,2020-4-13T06:51:02Z
2020-04-13T04:53:25Z,42.805,6.029,13.2971,4.59969,2469.909,2020-4-13T06:54:05Z
2020-04-13T04:56:29Z,42.805,6.029,13.2967,4.59969,2469.923,2020-4-13T06:57:08Z
2020-04-13T04:59:32Z,42.805,6.029,13.2968,4.59969,2469.923,2020-4-13T07:00:11Z
2020-04-13T05:02:35Z,42.805,6.029,13.2971,4.59969,2469.984,2020-4-13T07:03:15Z
2020-04-13T05:05:38Z,42.805,6.029,13.2971,4.59969,2469.9,2020-4-13T07:06:18Z
2020-04-13T05:08:42Z,42.805,6.029,13.2972,4.59970,2469.947,2020-4-13T07:09:21Z
2020-04-13T05:11:45Z,42.805,6.029,13.2973,4.59969,2469.97,2020-4-13T07:12:24Z
2020-04-13T05:14:48Z,42.805,6.029,13.2972,4.59969,2469.923,2020-4-13T07:15:27Z
2020-04-13T05:17:51Z,42.805,6.029,13.2968,4.59969,2469.947,2020-4-13T07:18:31Z
2020-04-13T05:20:55Z,42.805,6.029,13.2971,4.59968,2469.984,2020-4-13T07:21:34Z
2020-04-13T05:23:58Z,42.805,6.029,13.2967,4.59969,2469.96,2020-4-13T07:24:37Z
2020-04-13T05:27:01Z,42.805,6.029,13.2971,4.59969,2469.923,2020-4-13T07:27:41Z
2020-04-13T05:30:04Z,42.805,6.029,13.2974,4.59969,2469.96,2020-4-13T07:30:44Z
2020-04-13T05:33:08Z,42.805,6.029,13.2971,4.59970,2469.947,2020-4-13T07:33:47Z
2020-04-13T05:36:11Z,42.805,6.029,13.2971,4.59970,2469.97,2020-4-13T07:36:50Z
2020-04-13T05:39:14Z,42.805,6.029,13.2971,4.59969,2469.97,2020-4-13T07:39:53Z
2020-04-13T05:42:17Z,42.805,6.029,13.2971,4.59969,2469.984,2020-4-13T07:42:57Z
2020-04-13T05:45:21Z,42.805,6.029,13.2974,4.59969,2469.923,2020-4-13T07:46:00Z
2020-04-13T05:48:24Z,42.805,6.029,13.2971,4.59969,2469.97,2020-4-13T07:49:03Z
2020-04-13T05:51:27Z,42.805,6.029,13.2970,4.59970,2469.96,2020-4-13T07:52:07Z
2020-04-13T05:54:31Z,42.805,6.029,13.2974,4.59969,2469.97,2020-4-13T07:55:10Z
2020-04-13T05:57:34Z,42.805,6.029,13.2973,4.59970,2469.937,2020-4-13T07:58:13Z
2020-04-13T06:00:37Z,42.805,6.029,13.2973,4.59970,2469.97,2020-4-13T08:01:16Z
2020-04-13T06:03:40Z,42.805,6.029,13.2969,4.59970,2469.947,2020-4-13T08:04:20Z
2020-04-13T06:06:43Z,42.805,6.029,13.2974,4.59969,2469.96,2020-4-13T08:07:23Z
2020-04-13T06:09:47Z,42.805,6.029,13.2971,4.59969,2469.923,2020-4-13T08:10:26Z
2020-04-13T06:12:50Z,42.805,6.029,13.2971,4.59969,2469.947,2020-4-13T08:13:29Z
2020-04-13T06:15:53Z,42.805,6.029,13.2967,4.59970,2469.923,2020-4-13T08:16:33Z
2020-04-13T06:18:56Z,42.805,6.029,13.2969,4.59969,2469.96,2020-4-13T08:19:36Z
2020-04-13T06:22:00Z,42.805,6.029,13.2974,4.59969,2469.923,2020-4-13T08:22:39Z
2020-04-13T06:25:03Z,42.805,6.029,13.2973,4.59970,2469.937,2020-4-13T08:25:42Z
2020-04-13T06:28:06Z,42.805,6.029,13.2973,4.59969,2469.96,2020-4-13T08:28:46Z
2020-04-13T06:31:09Z,42.805,6.029,13.2973,4.59970,2469.956,2020-4-13T08:31:49Z
2020-04-13T06:34:13Z,42.805,6.029,13.2970,4.59971,2469.993,2020-4-13T08:34:52Z
2020-04-13T06:37:16Z,42.805,6.029,13.2971,4.59971,2469.96,2020-4-13T08:37:56Z
2020-04-13T06:40:19Z,42.805,6.029,13.2971,4.59971,2469.97,2020-4-13T08:40:59Z
2020-04-13T06:43:23Z,42.805,6.029,13.2970,4.59970,2469.947,2020-4-13T08:44:02Z
2020-04-13T06:46:26Z,42.805,6.029,13.2970,4.59970,2469.947,2020-4-13T08:47:05Z
2020-04-13T06:49:29Z,42.805,6.029,13.2974,4.59971,2469.947,2020-4-13T08:50:08Z
2020-04-13T06:52:32Z,42.805,6.029,13.2974,4.59970,2469.947,2020-4-13T08:53:12Z
2020-04-13T06:55:36Z,42.805,6.029,13.2969,4.59971,2469.9,2020-4-13T08:56:15Z
2020-04-13T06:58:39Z,42.805,6.029,13.2971,4.59971,2469.984,2020-4-13T08:59:18Z
2020-04-13T07:01:42Z,42.805,6.029,13.2971,4.59971,2469.923,2020-4-13T09:02:22Z
2020-04-13T07:04:45Z,42.805,6.029,13.2971,4.59971,2469.97,2020-4-13T09:05:25Z
2020-04-13T07:07:49Z,42.805,6.029,13.2971,4.59970,2469.947,2020-4-13T09:08:28Z
2020-04-13T07:10:52Z,42.805,6.029,13.2967,4.59971,2469.97,2020-4-13T09:11:31Z
2020-04-13T07:13:55Z,42.805,6.029,13.2972,4.59971,2469.947,2020-4-13T09:14:35Z
2020-04-13T07:16:58Z,42.805,6.029,13.2969,4.59971,2469.96,2020-4-13T09:17:38Z
2020-04-13T07:20:02Z,42.805,6.029,13.2971,4.59971,2469.96,2020-4-13T09:20:41Z
2020-04-13T07:23:05Z,42.805,6.029,13.2971,4.59971,2469.984,2020-4-13T09:23:45Z
2020-04-13T07:26:08Z,42.805,6.029,13.2973,4.59971,2469.97,2020-4-13T09:26:48Z
2020-04-13T07:29:12Z,42.805,6.029,13.2968,4.59971,2469.947,2020-4-13T09:29:51Z
2020-04-13T07:32:15Z,42.805,6.029,13.2970,4.59971,2469.947,2020-4-13T09:32:54Z
2020-04-13T07:35:18Z,42.805,6.029,13.2974,4.59971,2469.97,2020-4-13T09:35:58Z
2020-04-13T07:38:21Z,42.805,6.029,13.2974,4.59971,2469.984,2020-4-13T09:39:01Z
2020-04-13T07:41:25Z,42.805,6.029,13.2972,4.59971,2469.96,2020-4-13T09:42:04Z
2020-04-13T07:44:28Z,42.805,6.029,13.2971,4.59971,2469.984,2020-4-13T09:45:07Z
2020-04-13T07:47:31Z,42.805,6.029,13.2972,4.59971,2469.947,2020-4-13T09:48:11Z
2020-04-13T07:50:34Z,42.805,6.029,13.2969,4.59971,2469.947,2020-4-13T09:51:14Z
2020-04-13T07:53:38Z,42.805,6.029,13.2968,4.59971,2469.984,2020-4-13T09:54:17Z
2020-04-13T07:56:41Z,42.805,6.029,13.2968,4.59971,2469.984,2020-4-13T09:57:20Z
2020-04-13T07:59:44Z,42.805,6.029,13.2971,4.59971,2469.97,2020-4-13T10:00:23Z
2020-04-13T08:02:47Z,42.805,6.029,13.2971,4.59971,2470.007,2020-4-13T10:03:27Z
2020-04-13T08:05:50Z,42.805,6.029,13.2968,4.59972,2470.017,2020-4-13T10:06:30Z
2020-04-13T08:08:54Z,42.805,6.029,13.2974,4.59971,2470.007,2020-4-13T10:09:33Z
2020-04-13T08:11:57Z,42.805,6.029,13.2973,4.59971,2469.993,2020-4-13T10:12:36Z
2020-04-13T08:15:00Z,42.805,6.029,13.2971,4.59971,2469.993,2020-4-13T10:15:40Z
2020-04-13T08:18:03Z,42.805,6.029,13.2970,4.59971,2469.993,2020-4-13T10:18:43Z
2020-04-13T08:21:07Z,42.805,6.029,13.2972,4.59971,2469.993,2020-4-13T10:21:46Z
2020-04-13T08:24:10Z,42.805,6.029,13.2972,4.59971,2469.993,2020-4-13T10:24:49Z
2020-04-13T08:27:13Z,42.805,6.029,13.2973,4.59971,2470.017,2020-4-13T10:27:53Z
2020-04-13T08:30:16Z,42.805,6.029,13.2971,4.59971,2470.017,2020-4-13T10:30:56Z
2020-04-13T08:33:20Z,42.805,6.029,13.2971,4.59971,2470.007,2020-4-13T10:33:59Z
2020-04-13T08:36:23Z,42.805,6.029,13.2975,4.59971,2469.993,2020-4-13T10:37:02Z
2020-04-13T08:39:26Z,42.805,6.029,13.2974,4.59971,2469.979,2020-4-13T10:40:06Z
2020-04-13T08:42:29Z,42.805,6.029,13.2972,4.59971,2470.017,2020-4-13T10:43:09Z
2020-04-13T08:45:33Z,42.805,6.029,13.2973,4.59971,2470.03,2020-4-13T10:46:12Z
2020-04-13T08:48:36Z,42.805,6.029,13.2971,4.59971,2470.017,2020-4-13T10:49:15Z
2020-04-13T08:51:39Z,42.805,6.029,13.2974,4.59971,2470.017,2020-4-13T10:52:19Z
2020-04-13T08:54:42Z,42.805,6.029,13.2974,4.59971,2470.03,2020-4-13T10:55:22Z
2020-04-13T08:57:46Z,42.805,6.029,13.2974,4.59972,2470.03,2020-4-13T10:58:25Z
2020-04-13T09:00:49Z,42.805,6.029,13.2975,4.59971,2470.007,2020-4-13T11:01:29Z
2020-04-13T09:03:52Z,42.805,6.029,13.2974,4.59971,2469.993,2020-4-13T11:04:32Z
2020-04-13T09:06:56Z,42.805,6.029,13.2974,4.59971,2470.017,2020-4-13T11:07:35Z
2020-04-13T09:09:59Z,42.805,6.029,13.2971,4.59971,2470.007,2020-4-13T11:10:38Z
2020-04-13T09:13:02Z,42.805,6.029,13.2978,4.59972,2470.03,2020-4-13T11:13:41Z
2020-04-13T09:16:05Z,42.805,6.029,13.2974,4.59972,2470.03,2020-4-13T11:16:45Z
2020-04-13T09:19:08Z,42.805,6.029,13.2972,4.59972,2470.017,2020-4-13T11:19:48Z
2020-04-13T09:22:12Z,42.805,6.029,13.2971,4.59971,2470.017,2020-4-13T11:22:51Z
2020-04-13T09:25:15Z,42.805,6.029,13.2971,4.59971,2470.053,2020-4-13T11:25:54Z
2020-04-13T09:28:18Z,42.805,6.029,13.2974,4.59972,2470.053,2020-4-13T11:28:58Z
2020-04-13T09:31:22Z,42.805,6.029,13.2968,4.59972,2470.017,2020-4-13T11:32:01Z
2020-04-13T09:34:25Z,42.805,6.029,13.2972,4.59972,2470.017,2020-4-13T11:35:04Z
2020-04-13T09:37:28Z,42.805,6.029,13.2973,4.59972,2470.017,2020-4-13T11:38:08Z
2020-04-13T09:40:32Z,42.805,6.029,13.2971,4.59972,2470.017,2020-4-13T11:41:11Z
2020-04-13T09:43:35Z,42.805,6.029,13.2973,4.59971,2470.017,2020-4-13T11:44:14Z
2020-04-13T09:46:38Z,42.805,6.029,13.2972,4.59972,2470.007,2020-4-13T11:47:18Z
2020-04-13T09:49:41Z,42.805,6.029,13.2973,4.59972,2470.04,2020-4-13T11:50:21Z
2020-04-13T09:52:45Z,42.805,6.029,13.2971,4.59971,2469.993,2020-4-13T11:53:24Z
2020-04-13T09:55:48Z,42.805,6.029,13.2971,4.59971,2470.03,2020-4-13T11:56:27Z
2020-04-13T09:58:51Z,42.805,6.029,13.2974,4.59972,2470.053,2020-4-13T11:59:31Z
2020-04-13T10:01:55Z,42.805,6.029,13.2974,4.59972,2470.04,2020-4-13T12:02:34Z
2020-04-13T10:04:58Z,42.805,6.029,13.2977,4.59972,2470.063,2020-4-13T12:05:37Z
2020-04-13T10:08:01Z,42.805,6.029,13.2976,4.59972,2470.04,2020-4-13T12:08:40Z
2020-04-13T10:11:04Z,42.805,6.029,13.2972,4.59972,2470.03,2020-4-13T12:11:44Z
2020-04-13T10:14:07Z,42.805,6.029,13.2975,4.59972,2470.03,2020-4-13T12:14:47Z
2020-04-13T10:17:11Z,42.805,6.029,13.2969,4.59972,2470.017,2020-4-13T12:17:50Z
2020-04-13T10:20:14Z,42.805,6.029,13.2974,4.59972,2470.03,2020-4-13T12:20:53Z
2020-04-13T10:23:17Z,42.805,6.029,13.2974,4.59972,2470.017,2020-4-13T12:23:57Z
2020-04-13T10:26:20Z,42.805,6.029,13.2974,4.59972,2470.017,2020-4-13T12:27:00Z
2020-04-13T10:29:24Z,42.805,6.029,13.2970,4.59971,2470.053,2020-4-13T12:30:03Z
2020-04-13T10:32:27Z,42.805,6.029,13.2974,4.59972,2470.053,2020-4-13T12:33:06Z
2020-04-13T10:35:30Z,42.805,6.029,13.2974,4.59971,2470.017,2020-4-13T12:36:10Z
2020-04-13T10:38:33Z,42.805,6.029,13.2972,4.59972,2470.077,2020-4-13T12:39:13Z
2020-04-13T10:41:37Z,42.805,6.029,13.2973,4.59972,2470.04,2020-4-13T12:42:16Z
2020-04-13T10:44:40Z,42.805,6.029,13.2975,4.59971,2470.017,2020-4-13T12:45:19Z
2020-04-13T10:47:43Z,42.805,6.029,13.2972,4.59971,2470.017,2020-4-13T12:48:23Z
2020-04-13T10:50:46Z,42.805,6.029,13.2974,4.59972,2470.053,2020-4-13T12:51:26Z
2020-04-13T10:53:50Z,42.805,6.029,13.2973,4.59972,2470.017,2020-4-13T12:54:29Z
2020-04-13T10:56:53Z,42.805,6.029,13.2971,4.59973,2470.04,2020-4-13T12:57:32Z
2020-04-13T10:59:56Z,42.805,6.029,13.2975,4.59972,2470.03,2020-4-13T13:00:36Z
2020-04-13T11:02:59Z,42.805,6.029,13.2972,4.59971,2470.04,2020-4-13T13:03:39Z
2020-04-13T11:06:03Z,42.805,6.029,13.2971,4.59972,2469.993,2020-4-13T13:06:42Z
2020-04-13T11:09:06Z,42.805,6.029,13.2973,4.59972,2470.04,2020-4-13T13:09:45Z
2020-04-13T11:12:09Z,42.805,6.029,13.2973,4.59972,2469.993,2020-4-13T13:12:49Z
2020-04-13T11:15:12Z,42.805,6.029,13.2972,4.59971,2470.007,2020-4-13T13:15:52Z
2020-04-13T11:18:16Z,42.805,6.029,13.2972,4.59971,2470.017,2020-4-13T13:18:55Z
2020-04-13T11:21:19Z,42.805,6.029,13.2970,4.59972,2470.03,2020-4-13T13:21:58Z
2020-04-13T11:24:22Z,42.805,6.029,13.2972,4.59972,2470.03,2020-4-13T13:25:02Z
2020-04-13T11:27:26Z,42.805,6.029,13.2974,4.59972,2470.053,2020-4-13T13:28:05Z
2020-04-13T11:30:29Z,42.805,6.029,13.2974,4.59972,2470.017,2020-4-13T13:31:08Z
2020-04-13T11:33:32Z,42.805,6.029,13.2971,4.59971,2470.007,2020-4-13T13:34:11Z
2020-04-13T11:36:35Z,42.805,6.029,13.2975,4.59972,2470.03,2020-4-13T13:37:15Z
2020-04-13T11:39:38Z,42.805,6.029,13.2971,4.59971,2469.993,2020-4-13T13:40:18Z
2020-04-13T11:42:42Z,42.805,6.029,13.2971,4.59971,2469.993,2020-4-13T13:43:21Z
2020-04-13T11:45:45Z,42.805,6.029,13.2974,4.59971,2470.017,2020-4-13T13:46:24Z
2020-04-13T11:48:48Z,42.805,6.029,13.2971,4.59971,2470.03,2020-4-13T13:49:28Z
2020-04-13T11:51:51Z,42.805,6.029,13.2973,4.59971,2470.03,2020-4-13T13:52:31Z
2020-04-13T11:54:55Z,42.805,6.029,13.2974,4.59971,2470.017,2020-4-13T13:55:34Z
2020-04-13T11:57:58Z,42.805,6.029,13.2974,4.59972,2470.03,2020-4-13T13:58:37Z
2020-04-13T12:01:01Z,42.805,6.029,13.2972,4.59971,2470.03,2020-4-13T14:01:41Z
2020-04-13T12:04:04Z,42.805,6.029,13.2975,4.59972,2470.03,2020-4-13T14:04:44Z
2020-04-13T12:07:08Z,42.805,6.029,13.2973,4.59972,2470.03,2020-4-13T14:07:47Z
2020-04-13T12:10:11Z,42.805,6.029,13.2975,4.59972,2470.007,2020-4-13T14:10:50Z
2020-04-13T12:13:14Z,42.805,6.029,13.2973,4.59972,2469.993,2020-4-13T14:13:54Z
2020-04-13T12:16:17Z,42.805,6.029,13.2973,4.59972,2470.007,2020-4-13T14:16:57Z
2020-04-13T12:19:21Z,42.805,6.029,13.2974,4.59971,2469.993,2020-4-13T14:20:00Z
2020-04-13T12:22:24Z,42.805,6.029,13.2974,4.59971,2469.993,2020-4-13T14:23:03Z
2020-04-13T12:25:27Z,42.805,6.029,13.2969,4.59971,2469.993,2020-4-13T14:26:07Z
2020-04-13T12:28:31Z,42.805,6.029,13.2970,4.59971,2470.03,2020-4-13T14:29:10Z
2020-04-13T12:31:34Z,42.805,6.029,13.2975,4.59971,2469.984,2020-4-13T14:32:13Z
2020-04-13T12:34:37Z,42.805,6.029,13.2971,4.59972,2469.984,2020-4-13T14:35:17Z
2020-04-13T12:37:40Z,42.805,6.029,13.2971,4.59971,2469.993,2020-4-13T14:38:20Z
2020-04-13T12:40:44Z,42.805,6.029,13.2974,4.59972,2470.007,2020-4-13T14:41:23Z
2020-04-13T12:43:47Z,42.805,6.029,13.2974,4.59971,2470.017,2020-4-13T14:44:26Z
2020-04-13T12:46:50Z,42.805,6.029,13.2973,4.59972,2469.97,2020-4-13T14:47:30Z
2020-04-13T12:49:53Z,42.805,6.029,13.2973,4.59972,2469.993,2020-4-13T14:50:33Z
2020-04-13T12:52:57Z,42.805,6.029,13.2975,4.59972,2469.993,2020-4-13T14:53:36Z
2020-04-13T12:56:00Z,42.805,6.029,13.2974,4.59972,2470.007,2020-4-13T14:56:39Z
2020-04-13T12:59:03Z,42.805,6.029,13.2972,4.59971,2470.007,2020-4-13T14:59:43Z
2020-04-13T13:02:06Z,42.805,6.029,13.2974,4.59971,2469.993,2020-4-13T15:02:46Z
2020-04-13T13:05:10Z,42.805,6.029,13.2972,4.59972,2469.993,2020-4-13T15:05:49Z
2020-04-13T13:08:13Z,42.805,6.029,13.2975,4.59972,2470.007,2020-4-13T15:08:52Z
2020-04-13T13:11:16Z,42.805,6.029,13.2974,4.59971,2469.993,2020-4-13T15:11:56Z
2020-04-13T13:14:19Z,42.805,6.029,13.2974,4.59971,2469.97,2020-4-13T15:14:59Z
2020-04-13T13:17:23Z,42.805,6.029,13.2969,4.59971,2469.97,2020-4-13T15:18:02Z
2020-04-13T13:20:26Z,42.805,6.029,13.2972,4.59971,2469.947,2020-4-13T15:21:05Z
2020-04-13T13:23:29Z,42.805,6.029,13.2975,4.59971,2470.007,2020-4-13T15:24:09Z
2020-04-13T13:26:32Z,42.805,6.029,13.2971,4.59971,2469.993,2020-4-13T15:27:12Z
2020-04-13T13:29:36Z,42.805,6.029,13.2973,4.59971,2470.007,2020-4-13T15:30:15Z
2020-04-13T13:32:39Z,42.805,6.029,13.2971,4.59972,2469.97,2020-4-13T15:33:18Z
2020-04-13T13:35:42Z,42.805,6.029,13.2974,4.59972,2469.984,2020-4-13T15:36:22Z
2020-04-13T13:38:45Z,42.805,6.029,13.2971,4.59972,2469.96,2020-4-13T15:39:25Z
2020-04-13T13:41:49Z,42.805,6.029,13.2975,4.59972,2469.97,2020-4-13T15:42:28Z
2020-04-13T13:44:52Z,42.805,6.029,13.2970,4.59971,2469.956,2020-4-13T15:45:31Z
2020-04-13T13:47:55Z,42.805,6.029,13.2974,4.59971,2469.97,2020-4-13T15:48:34Z
2020-04-13T13:50:58Z,42.805,6.029,13.2974,4.59971,2469.923,2020-4-13T15:51:38Z
2020-04-13T13:54:02Z,42.805,6.029,13.2973,4.59972,2469.993,2020-4-13T15:54:41Z
2020-04-13T13:57:05Z,42.805,6.029,13.2971,4.59972,2469.923,2020-4-13T15:57:44Z
2020-04-13T14:00:08Z,42.805,6.029,13.2973,4.59972,2469.96,2020-4-13T16:00:47Z
2020-04-13T14:03:11Z,42.805,6.029,13.2974,4.59972,2469.947,2020-4-13T16:03:51Z
2020-04-13T14:06:14Z,42.805,6.029,13.2974,4.59971,2469.947,2020-4-13T16:06:54Z
2020-04-13T14:09:18Z,42.805,6.029,13.2970,4.59972,2469.993,2020-4-13T16:09:57Z
2020-04-13T14:12:21Z,42.805,6.029,13.2974,4.59972,2469.96,2020-4-13T16:13:00Z
2020-04-13T14:15:24Z,42.805,6.029,13.2970,4.59972,2469.947,2020-4-13T16:16:03Z
2020-04-13T14:18:27Z,42.805,6.029,13.2974,4.59973,2469.984,2020-4-13T16:19:07Z
2020-04-13T14:21:30Z,42.805,6.029,13.2976,4.59972,2469.947,2020-4-13T16:22:10Z
2020-04-13T14:24:34Z,42.805,6.029,13.2976,4.59972,2469.947,2020-4-13T16:25:13Z
2020-04-13T14:27:37Z,42.805,6.029,13.2974,4.59972,2469.9,2020-4-13T16:28:16Z
2020-04-13T14:30:40Z,42.805,6.029,13.2975,4.59972,2469.923,2020-4-13T16:31:19Z
2020-04-13T14:33:43Z,42.805,6.029,13.2976,4.59972,2469.97,2020-4-13T16:34:23Z
2020-04-13T14:36:46Z,42.805,6.029,13.2975,4.59972,2469.923,2020-4-13T16:37:26Z
2020-04-13T14:39:50Z,42.805,6.029,13.2974,4.59973,2469.937,2020-4-13T16:40:29Z
2020-04-13T14:42:53Z,42.805,6.029,13.2974,4.59972,2469.933,2020-4-13T16:43:32Z
2020-04-13T14:45:56Z,42.805,6.029,13.2973,4.59973,2469.947,2020-4-13T16:46:35Z
2020-04-13T14:48:59Z,42.805,6.029,13.2974,4.59973,2469.947,2020-4-13T16:49:39Z
2020-04-13T14:52:02Z,42.805,6.029,13.2975,4.59972,2469.947,2020-4-13T16:52:42Z
2020-04-13T14:55:06Z,42.805,6.029,13.2974,4.59973,2469.923,2020-4-13T16:55:45Z
2020-04-13T14:58:09Z,42.805,6.029,13.2974,4.59972,2469.96,2020-4-13T16:58:48Z
2020-04-13T15:01:12Z,42.805,6.029,13.2969,4.59972,2469.947,2020-4-13T17:01:51Z
2020-04-13T15:04:15Z,42.805,6.029,13.2974,4.59972,2469.947,2020-4-13T17:04:55Z
2020-04-13T15:07:19Z,42.805,6.029,13.2974,4.59972,2469.984,2020-4-13T17:07:58Z
2020-04-13T15:10:22Z,42.805,6.029,13.2972,4.59973,2469.947,2020-4-13T17:11:01Z
2020-04-13T15:13:25Z,42.805,6.029,13.2976,4.59972,2469.947,2020-4-13T17:14:05Z